Wind_Speed
8 9 8 9 10 10 11 11 12 13 13 14 14 15 14 14 14 14 14 14 14 14 13 13 14 14 14 14 14 13 13 13 13 13 14 14 14 14 14 14 14 14 14 14
9 10 9 10 10 11 11 12 13 13 13 14 14 15 15 14 15 15 14 14 15 15 14 14 14 15 14 14 14 14 13 13 13 13 14 14 14 14 14 14 14 14 15 15
11 10 10 11 11 11 12 12 12 13 14 15 15 15 16 15 15 15 15 16 16 16 15 15 15 15 14 14 14 14 13 14 14 14 14 15 15 15 15 15 15 15 15 16
12 11 11 11 11 12 12 12 12 13 14 15 14 16 16 16 16 16 16 17 17 16 16 16 15 15 15 15 15 14 14 14 15 15 15 15 16 15 15 16 16 16 16 17
13 12 12 12 12 13 13 13 13 13 13 14 15 17 17 16 16 17 18 17 17 17 16 16 16 16 16 15 15 15 15 15 15 15 15 16 16 16 16 16 17 17 17 17
14 14 14 13 13 14 13 13 14 14 14 14 14 16 17 17 17 18 18 18 18 18 18 17 17 17 17 16 16 16 16 16 16 16 16 16 16 16 17 17 17 17 18 18
15 15 14 14 14 14 13 13 14 14 14 15 14 17 18 18 18 18 18 18 18 19 19 18 18 18 18 17 16 16 17 17 17 17 16 16 16 16 17 17 18 18 18 19
16 16 16 15 15 14 14 14 14 14 13 14 15 18 19 19 19 18 19 19 19 20 20 19 19 19 18 18 18 18 17 17 17 17 16 17 17 17 18 18 19 18 19 19
17 18 16 17 16 15 15 15 14 14 14 14 15 17 20 20 19 19 19 20 20 20 20 20 20 19 19 19 19 18 18 18 18 18 18 18 18 19 19 19 20 20 20 21
17 18 17 18 17 16 15 15 15 15 15 16 16 16 19 19 19 19 20 20 21 20 21 21 21 20 20 20 20 19 19 20 19 19 19 19 19 19 20 21 21 21 22 23
16 17 17 18 18 17 15 16 16 16 16 17 17 19 20 21 21 21 21 20 21 21 22 22 21 21 21 22 22 21 20 21 21 22 22 21 21 21 22 22 22 23 23 23
17 17 16 17 18 18 16 16 16 17 17 18 18 19 20 21 21 21 21 21 21 22 22 21 21 21 22 22 23 23 23 23 23 23 23 23 23 24 24 23 24 24 25 26
17 17 17 17 18 18 17 17 17 18 19 19 19 20 20 22 22 22 22 21 21 22 22 21 21 22 22 23 23 24 24 24 25 25 25 25 26 26 26 27 27 27 27 27
18 18 18 18 18 19 18 18 19 19 20 21 20 20 20 22 23 23 23 21 21 22 22 22 22 22 23 23 24 24 25 25 25 26 26 26 27 27 28 28 29 29 28 28
19 19 19 18 18 19 20 19 19 20 21 21 20 21 21 23 23 23 23 22 21 21 22 23 23 23 23 24 25 25 25 26 26 26 27 27 28 29 30 29 30 30 29 30
19 19 19 19 18 19 20 19 19 20 21 22 22 21 21 22 24 24 24 23 21 21 23 23 23 23 24 25 25 25 26 26 26 27 28 28 28 29 30 29 30 31 31 32
20 20 20 20 19 20 20 19 20 20 20 21 22 21 21 22 23 24 25 24 23 23 23 24 24 24 24 25 25 25 26 26 27 28 28 29 29 30 30 30 31 31 32 32
20 21 21 21 21 22 21 20 20 21 22 22 22 22 22 23 23 24 24 25 24 24 25 25 25 25 25 25 26 26 26 27 27 28 28 29 29 29 29 30 30 30 30 30
21 21 22 23 24 23 21 21 21 23 23 22 23 23 23 24 24 24 24 24 25 25 24 25 26 25 25 25 26 26 26 26 27 27 28 28 29 29 29 30 30 29 29 29
21 22 23 23 24 26 23 22 23 23 24 24 24 24 24 24 24 24 25 25 25 25 25 25 25 25 25 25 26 26 26 26 26 27 28 28 28 29 29 29 28 28 28 28
22 22 23 24 25 26 24 24 24 24 24 25 25 25 24 24 25 25 25 25 25 25 25 25 25 25 25 25 26 26 26 26 27 27 28 29 29 28 28 28 27 27 27 27
24 24 24 25 26 26 25 25 26 26 25 26 25 25 26 25 25 25 25 24 24 24 24 25 25 25 24 25 25 25 26 26 27 27 27 27 27 27 27 27 26 26 26 25
25 26 26 26 26 26 26 27 26 27 27 27 26 25 25 25 25 25 25 24 24 24 25 25 25 25 24 24 24 25 25 26 26 26 26 26 26 26 26 25 25 25 24 24
26 26 27 27 27 27 27 27 27 27 28 27 26 26 26 25 25 25 25 25 25 24 24 24 24 24 24 24 24 24 24 24 25 25 24 24 24 25 25 25 25 24 24 24
27 27 27 27 27 27 26 26 27 27 28 27 25 25 25 25 25 25 25 25 25 25 24 24 24 24 24 24 24 25 25 24 24 24 24 24 24 24 24 24 24 24 24 24
28 28 28 27 26 27 27 27 27 28 28 27 26 26 26 26 26 25 24 24 24 24 23 23 24 24 24 23 24 24 24 25 24 24 24 24 23 24 23 23 23 23 23 23
Wind_Direction
270 272 277 277 276 275 275 275 274 275 272 273 275 274 273 274 273 271 270 269 271 274 273 273 274 274 275 274 275 276 279 282 284 284 284 285 287 286 287 287 285 286 286 284
268 271 273 274 276 276 276 276 277 278 273 273 273 273 271 272 274 274 271 271 271 273 273 272 274 275 276 279 277 275 277 279 281 281 283 286 288 288 288 287 287 286 286 285
268 270 270 270 272 276 276 276 277 276 275 274 275 273 272 272 273 273 271 271 272 273 273 272 274 277 278 278 276 275 277 278 279 282 285 287 288 290 291 288 286 286 287 285
267 268 268 270 271 272 274 279 277 276 277 277 276 275 275 276 274 272 272 272 271 271 271 271 274 276 276 277 277 274 275 277 279 282 284 286 287 288 288 288 287 288 288 287
265 267 268 268 273 274 276 278 277 278 281 282 279 277 277 279 276 274 273 272 271 270 271 270 273 274 273 274 275 274 274 277 279 281 283 285 287 288 288 288 289 289 290 289
265 266 267 269 272 274 275 273 275 280 284 284 282 280 279 276 278 276 274 273 270 269 269 270 272 272 271 270 271 272 272 274 276 280 283 284 286 288 289 289 288 288 288 288
265 266 266 267 268 269 270 272 276 278 280 285 283 277 277 277 277 276 274 270 270 270 271 270 270 272 271 268 268 272 274 273 274 276 280 282 284 287 288 289 289 290 289 289
268 268 267 267 270 271 268 268 270 271 271 276 279 275 278 279 277 275 273 270 270 271 271 269 269 270 268 268 271 273 274 274 273 274 277 281 283 286 286 287 288 289 290 290
267 269 269 269 268 268 270 270 272 274 272 270 274 281 281 279 279 276 274 271 271 272 270 269 268 268 267 268 269 269 272 271 270 273 276 280 283 285 287 287 286 288 288 289
265 270 270 269 267 264 265 268 267 265 267 268 268 270 276 282 281 278 277 275 271 271 269 268 268 267 267 267 268 268 268 271 273 274 276 280 282 283 284 285 285 285 286 288
263 267 270 269 267 267 265 264 264 266 268 268 269 269 276 279 280 279 276 275 273 272 270 269 269 267 267 267 268 268 269 272 272 274 276 278 282 283 284 285 285 286 286 287
262 265 268 272 273 267 266 267 266 265 265 266 267 268 275 274 275 276 276 277 275 272 271 271 271 268 267 268 268 268 269 271 273 274 276 279 282 284 285 284 286 286 286 287
260 262 265 270 274 269 266 266 266 266 266 267 267 269 275 275 274 275 275 276 274 273 271 271 270 270 270 269 269 269 270 272 274 274 276 278 280 283 285 286 288 288 286 285
258 259 262 265 270 272 269 267 268 267 268 268 267 270 272 275 275 275 273 275 274 274 272 271 270 269 269 269 269 270 272 273 273 274 276 278 280 283 284 285 288 288 285 285
258 259 260 263 265 269 272 269 268 268 268 268 268 269 270 273 275 275 273 272 274 273 272 272 271 271 271 270 271 271 273 273 274 274 276 279 280 282 283 284 286 287 287 287
260 260 261 261 261 265 271 273 273 272 270 270 270 269 270 272 272 273 273 272 272 271 271 272 272 272 272 273 274 274 274 274 274 275 276 278 280 281 282 284 286 286 287 288
261 261 260 259 262 264 267 273 275 275 274 274 271 272 271 271 271 271 273 274 274 272 272 272 271 272 273 275 275 275 276 277 276 278 279 279 280 280 281 284 286 287 287 287
262 262 260 260 264 267 273 274 276 275 274 272 272 273 272 271 271 272 273 274 274 274 274 273 272 273 274 276 277 277 277 277 278 279 280 280 280 280 281 284 286 287 288 287
263 262 263 261 263 268 273 275 276 276 274 274 275 275 276 275 275 274 275 276 276 275 275 275 273 274 275 276 277 277 278 277 278 280 281 281 282 283 283 285 287 288 289 288
266 263 263 264 265 266 272 277 276 276 276 276 276 278 279 277 276 275 275 276 276 276 278 277 275 274 275 276 277 278 279 279 280 280 281 282 283 285 284 284 286 287 289 288
268 267 264 264 267 270 273 275 276 276 276 276 275 277 279 278 277 277 277 278 279 278 278 277 275 275 276 276 278 279 281 281 281 281 282 284 286 287 286 285 285 286 288 288
269 271 269 267 268 270 273 273 274 275 276 277 277 277 278 278 276 276 277 278 279 279 278 278 277 276 277 279 280 280 282 283 283 283 284 286 288 288 286 284 284 286 287 288
268 270 271 269 270 272 273 274 275 275 275 276 277 277 278 278 277 277 276 278 278 278 279 278 277 276 278 280 280 281 283 284 285 284 285 286 287 287 287 285 286 286 287 288
268 269 270 271 271 272 272 273 274 275 275 276 275 276 278 278 277 278 277 277 278 279 280 279 277 276 278 280 280 282 284 286 287 286 286 286 287 287 287 287 287 287 286 288
267 266 267 268 269 270 271 273 273 274 275 275 274 276 278 279 279 279 278 279 280 281 281 280 279 279 280 279 281 282 283 285 286 287 287 287 287 288 287 288 288 288 287 288
266 266 265 266 267 268 269 271 273 274 274 275 274 276 278 279 278 279 278 279 280 280 281 281 282 281 280 280 281 282 284 285 286 286 287 289 288 289 289 288 287 286 287 288
Height
5821 5822 5822 5822 5822 5823 5823 5823 5823 5823 5823 5823 5823 5824 5824 5824 5825 5825 5825 5826 5826 5826 5827 5827 5827 5827 5827 5827 5828 5828 5829 5829 5829 5829 5829 5829 5829 5828 5828 5828 5828 5828 5828 5827
5819 5820 5820 5820 5820 5821 5821 5821 5821 5821 5821 5820 5820 5821 5821 5821 5822 5822 5823 5823 5823 5824 5824 5825 5824 5824 5824 5825 5825 5825 5826 5826 5826 5826 5826 5826 5825 5825 5825 5825 5824 5824 5824 5824
5817 5818 5817 5818 5818 5818 5818 5818 5818 5818 5818 5817 5817 5818 5818 5818 5819 5819 5820 5820 5820 5821 5821 5821 5821 5821 5821 5822 5822 5822 5822 5823 5823 5823 5823 5822 5822 5822 5821 5821 5821 5821 5820 5820
5813 5814 5814 5815 5815 5815 5815 5815 5815 5814 5814 5814 5815 5814 5814 5814 5815 5816 5816 5817 5817 5817 5818 5818 5818 5818 5818 5818 5819 5819 5819 5819 5819 5819 5819 5819 5819 5819 5818 5818 5817 5817 5817 5816
5810 5811 5811 5812 5812 5812 5812 5812 5812 5812 5811 5811 5812 5811 5811 5810 5811 5812 5813 5813 5813 5814 5814 5814 5815 5815 5815 5815 5815 5816 5816 5816 5816 5816 5816 5815 5815 5815 5815 5814 5814 5813 5813 5812
5807 5808 5808 5809 5809 5809 5809 5809 5809 5808 5808 5808 5809 5808 5807 5807 5807 5808 5809 5809 5809 5810 5811 5811 5811 5811 5811 5811 5811 5812 5812 5812 5812 5812 5812 5811 5811 5811 5810 5810 5810 5809 5808 5808
5803 5804 5804 5805 5805 5805 5805 5806 5805 5804 5804 5805 5806 5805 5805 5804 5804 5804 5805 5805 5805 5806 5806 5807 5807 5807 5807 5807 5808 5808 5808 5808 5808 5808 5808 5807 5807 5807 5806 5806 5805 5805 5804 5803
5799 5800 5801 5801 5801 5802 5802 5802 5802 5802 5802 5802 5802 5800 5801 5801 5801 5800 5800 5800 5801 5801 5802 5802 5803 5803 5803 5803 5803 5804 5804 5804 5804 5804 5804 5803 5803 5803 5802 5801 5801 5800 5799 5799
5796 5797 5797 5797 5797 5798 5798 5798 5799 5799 5798 5798 5798 5797 5796 5796 5796 5796 5796 5796 5797 5797 5797 5798 5798 5799 5799 5799 5799 5799 5800 5799 5799 5799 5799 5799 5798 5798 5797 5797 5795 5795 5794 5793
5792 5793 5793 5793 5793 5794 5795 5795 5795 5794 5794 5794 5795 5794 5792 5791 5792 5792 5791 5791 5792 5792 5792 5793 5793 5794 5794 5794 5794 5795 5795 5794 5794 5794 5794 5794 5793 5793 5792 5791 5791 5790 5789 5788
5788 5788 5789 5788 5788 5790 5790 5791 5790 5790 5790 5790 5790 5792 5789 5788 5787 5787 5787 5787 5787 5787 5787 5787 5788 5788 5788 5789 5789 5789 5789 5789 5789 5789 5788 5788 5787 5787 5786 5786 5784 5783 5782 5781
5783 5783 5783 5784 5784 5785 5785 5786 5786 5786 5786 5786 5786 5788 5784 5783 5782 5781 5781 5782 5782 5782 5782 5782 5782 5782 5783 5783 5783 5783 5784 5783 5783 5783 5782 5782 5781 5781 5780 5779 5777 5776 5775 5774
5778 5779 5779 5780 5781 5780 5780 5781 5781 5781 5781 5781 5781 5783 5779 5778 5777 5777 5776 5776 5776 5776 5776 5777 5777 5777 5777 5777 5777 5777 5777 5777 5777 5776 5776 5775 5775 5774 5773 5772 5770 5769 5767 5766
5773 5774 5775 5776 5775 5775 5775 5775 5776 5776 5776 5776 5776 5776 5774 5772 5772 5771 5771 5770 5771 5771 5771 5771 5771 5771 5771 5771 5771 5771 5771 5770 5770 5769 5769 5768 5767 5766 5765 5764 5762 5760 5759 5757
5768 5769 5770 5770 5770 5770 5770 5770 5770 5771 5770 5770 5771 5770 5769 5767 5766 5765 5765 5765 5765 5765 5765 5765 5765 5765 5765 5765 5764 5764 5763 5763 5763 5762 5761 5761 5760 5758 5757 5755 5754 5752 5750 5748
5763 5764 5764 5765 5765 5765 5764 5765 5765 5765 5765 5764 5764 5764 5763 5762 5760 5760 5759 5759 5759 5759 5759 5759 5759 5759 5758 5758 5757 5757 5756 5756 5755 5754 5754 5752 5751 5750 5748 5746 5745 5743 5741 5739
5758 5759 5759 5759 5760 5759 5759 5761 5760 5760 5759 5759 5758 5758 5756 5755 5754 5754 5753 5753 5753 5752 5752 5752 5752 5752 5751 5751 5750 5749 5748 5748 5747 5746 5745 5744 5743 5742 5739 5738 5736 5734 5732 5730
5753 5753 5753 5754 5755 5754 5757 5755 5754 5754 5753 5753 5752 5751 5750 5749 5749 5748 5747 5747 5746 5745 5745 5745 5745 5744 5744 5743 5742 5742 5741 5740 5739 5738 5737 5735 5734 5733 5731 5729 5727 5725 5723 5721
5747 5748 5748 5748 5748 5748 5749 5749 5748 5748 5747 5747 5746 5745 5744 5743 5742 5742 5741 5740 5739 5739 5738 5737 5737 5737 5736 5736 5735 5734 5733 5732 5731 5730 5728 5727 5725 5724 5722 5720 5718 5716 5714 5712
5742 5742 5743 5742 5742 5742 5744 5743 5742 5742 5741 5741 5739 5738 5737 5737 5736 5736 5735 5733 5733 5732 5731 5730 5729 5729 5728 5728 5727 5726 5725 5724 5723 5722 5720 5718 5716 5715 5714 5712 5710 5708 5706 5704
5736 5736 5736 5736 5735 5736 5737 5736 5736 5737 5736 5734 5732 5732 5731 5730 5729 5729 5727 5726 5726 5725 5724 5723 5722 5721 5721 5720 5719 5718 5717 5716 5715 5713 5712 5710 5708 5707 5705 5704 5702 5700 5698 5697
5729 5729 5730 5730 5730 5732 5730 5730 5730 5729 5728 5727 5726 5725 5724 5723 5722 5721 5721 5720 5719 5718 5717 5716 5715 5714 5713 5712 5712 5711 5710 5708 5707 5705 5704 5702 5700 5699 5698 5696 5695 5693 5691 5690
5723 5723 5723 5724 5725 5724 5723 5723 5723 5722 5721 5720 5719 5719 5717 5716 5715 5715 5714 5713 5712 5711 5710 5709 5708 5707 5706 5705 5704 5703 5702 5701 5699 5698 5696 5695 5693 5692 5690 5689 5687 5686 5684 5683
5716 5716 5716 5716 5716 5717 5716 5716 5715 5715 5714 5713 5712 5711 5710 5709 5708 5708 5707 5706 5705 5704 5703 5702 5701 5700 5699 5698 5697 5696 5695 5693 5692 5690 5689 5687 5686 5684 5683 5681 5680 5679 5677 5676
5708 5708 5708 5708 5709 5709 5709 5709 5708 5707 5706 5706 5705 5704 5703 5702 5701 5701 5700 5699 5698 5697 5696 5695 5694 5693 5692 5691 5690 5689 5687 5686 5685 5683 5682 5680 5679 5677 5676 5674 5673 5672 5671 5670
5701 5701 5701 5701 5702 5701 5702 5701 5700 5700 5699 5699 5698 5697 5696 5695 5694 5693 5693 5692 5691 5690 5689 5688 5687 5686 5685 5684 5683 5682 5680 5679 5678 5676 5675 5674 5672 5671 5669 5668 5667 5665 5664 5663